TimeCDT,TemperatureF,Dew PointF,Humidity,Sea Level PressureIn,VisibilityMPH,Wind Direction,Wind SpeedMPH,Gust SpeedMPH,PrecipitationIn,Events,Conditions,WindDirDegrees,DateUTC
12:15 AM,64.4,46.4,52,29.41,10.0,SSW,11.5,-,N/A,,Partly Cloudy,200,2012-10-17 05:15:00
12:35 AM,64.4,46.4,52,29.40,10.0,SSW,12.7,-,N/A,,Partly Cloudy,200,2012-10-17 05:35:00
12:55 AM,66.2,44.6,46,29.39,10.0,SSW,12.7,-,N/A,,Scattered Clouds,200,2012-10-17 05:55:00
1:15 AM,64.4,46.4,52,29.38,10.0,SSW,13.8,19.6,N/A,,Partly Cloudy,200,2012-10-17 06:15:00
1:55 AM,62.6,46.4,55,29.39,10.0,SW,8.1,-,N/A,,Clear,220,2012-10-17 06:55:00
2:15 AM,62.6,46.4,55,29.38,10.0,SSW,11.5,-,N/A,,Clear,210,2012-10-17 07:15:00
2:35 AM,64.4,44.6,49,29.38,10.0,SSW,13.8,19.6,N/A,,Clear,210,2012-10-17 07:35:00
2:55 AM,64.4,44.6,49,29.39,10.0,SW,16.1,19.6,N/A,,Partly Cloudy,220,2012-10-17 07:55:00
3:15 AM,64.4,44.6,49,29.38,10.0,WSW,16.1,-,N/A,,Clear,240,2012-10-17 08:15:00
3:35 AM,64.4,44.6,49,29.39,10.0,WSW,16.1,-,N/A,,Clear,250,2012-10-17 08:35:00
3:55 AM,66.2,44.6,46,29.39,10.0,WNW,32.2,38.0,N/A,,Clear,300,2012-10-17 08:55:00
4:15 AM,64.4,48.2,56,29.41,9.0,NW,21.9,34.5,N/A,,Scattered Clouds,320,2012-10-17 09:15:00
4:35 AM,62.6,48.2,59,29.43,10.0,NW,23.0,35.7,N/A,,Partly Cloudy,310,2012-10-17 09:35:00
4:55 AM,59.0,46.4,63,29.45,10.0,NW,26.5,32.2,N/A,,Clear,320,2012-10-17 09:55:00
5:15 AM,59.0,46.4,63,29.46,10.0,NW,23.0,31.1,N/A,,Mostly Cloudy,320,2012-10-17 10:15:00
5:35 AM,57.2,46.4,67,29.46,10.0,NW,19.6,25.3,N/A,Rain,Light Rain,320,2012-10-17 10:35:00
5:55 AM,55.4,50.0,82,29.46,7.0,NNW,21.9,27.6,N/A,Rain,Light Rain,330,2012-10-17 10:55:00
6:15 AM,53.6,53.6,100,29.48,8.0,NW,15.0,21.9,0.01,Rain,Light Rain,320,2012-10-17 11:15:00
6:35 AM,53.6,51.8,94,29.47,10.0,NW,13.8,19.6,0.01,,Mostly Cloudy,320,2012-10-17 11:35:00
6:55 AM,53.6,50.0,88,29.49,10.0,NW,13.8,-,0.01,,Mostly Cloudy,310,2012-10-17 11:55:00
7:15 AM,53.6,50.0,88,29.49,10.0,NW,13.8,-,N/A,,Scattered Clouds,310,2012-10-17 12:15:00
7:35 AM,53.6,48.2,82,29.50,10.0,NW,15.0,-,N/A,,Mostly Cloudy,320,2012-10-17 12:35:00
7:55 AM,53.6,48.2,82,29.51,10.0,NW,15.0,-,N/A,,Mostly Cloudy,310,2012-10-17 12:55:00
8:15 AM,53.6,46.4,77,29.51,10.0,NW,18.4,24.2,N/A,,Mostly Cloudy,320,2012-10-17 13:15:00
8:35 AM,53.6,41.0,62,29.54,10.0,NW,19.6,27.6,N/A,,Scattered Clouds,320,2012-10-17 13:35:00
8:55 AM,53.6,39.2,58,29.55,10.0,NNW,19.6,26.5,N/A,,Scattered Clouds,330,2012-10-17 13:55:00
9:15 AM,53.6,37.4,54,29.56,10.0,NNW,18.4,24.2,N/A,,Mostly Cloudy,330,2012-10-17 14:15:00
9:35 AM,53.6,37.4,54,29.57,10.0,NW,18.4,-,N/A,,Partly Cloudy,320,2012-10-17 14:35:00
9:55 AM,55.4,37.4,51,29.57,10.0,NW,21.9,26.5,N/A,,Clear,320,2012-10-17 14:55:00
10:15 AM,57.2,32.0,38,29.58,10.0,NNW,26.5,38.0,N/A,,Clear,330,2012-10-17 15:15:00
10:35 AM,57.2,32.0,38,29.58,10.0,NW,28.8,34.5,N/A,,Clear,320,2012-10-17 15:35:00
10:55 AM,59.0,32.0,36,29.58,10.0,NW,36.8,43.7,N/A,,Clear,320,2012-10-17 15:55:00
11:15 AM,57.2,30.2,36,29.59,10.0,NNW,28.8,42.6,N/A,,Clear,330,2012-10-17 16:15:00
11:35 AM,57.2,30.2,36,29.59,10.0,NW,27.6,41.4,N/A,,Clear,320,2012-10-17 16:35:00
11:55 AM,59.0,32.0,36,29.59,10.0,NW,33.4,39.1,N/A,,Clear,310,2012-10-17 16:55:00
12:15 PM,59.0,32.0,36,29.59,10.0,NW,26.5,36.8,N/A,,Clear,320,2012-10-17 17:15:00
12:35 PM,59.0,32.0,36,29.59,10.0,NW,32.2,39.1,N/A,,Clear,320,2012-10-17 17:35:00
12:55 PM,59.0,32.0,36,29.60,10.0,NW,33.4,42.6,N/A,,Scattered Clouds,320,2012-10-17 17:55:00
1:15 PM,59.0,32.0,36,29.59,10.0,NNW,35.7,47.2,N/A,,Scattered Clouds,330,2012-10-17 18:15:00
1:35 PM,59.0,32.0,36,29.59,8.0,NNW,27.6,52.9,N/A,,Scattered Clouds,340,2012-10-17 18:35:00
1:55 PM,60.8,32.0,34,29.58,9.0,NW,32.2,47.2,N/A,,Scattered Clouds,320,2012-10-17 18:55:00
2:15 PM,60.8,30.2,31,29.58,9.0,NNW,38.0,47.2,N/A,,Partly Cloudy,330,2012-10-17 19:15:00
2:35 PM,60.8,28.4,29,29.58,10.0,NW,31.1,42.6,N/A,,Partly Cloudy,320,2012-10-17 19:35:00
2:55 PM,59.0,28.4,31,29.58,10.0,NW,31.1,40.3,N/A,,Scattered Clouds,320,2012-10-17 19:55:00
3:15 PM,59.0,26.6,29,29.57,10.0,NW,28.8,38.0,N/A,,Scattered Clouds,320,2012-10-17 20:15:00
3:35 PM,60.8,23.0,23,29.57,10.0,NW,38.0,-,N/A,,Scattered Clouds,320,2012-10-17 20:35:00
3:55 PM,62.6,17.6,18,29.58,10.0,NW,31.1,47.2,N/A,,Mostly Cloudy,320,2012-10-17 20:55:00
4:15 PM,62.6,15.8,16,29.57,9.0,NNW,38.0,48.3,N/A,,Scattered Clouds,330,2012-10-17 21:15:00
4:35 PM,62.6,17.6,18,29.59,9.0,NW,35.7,44.9,N/A,,Clear,320,2012-10-17 21:35:00
4:55 PM,59.0,17.6,20,29.60,10.0,NW,26.5,36.8,N/A,,Clear,320,2012-10-17 21:55:00
5:15 PM,59.0,17.6,20,29.60,10.0,NW,33.4,43.7,N/A,,Clear,320,2012-10-17 22:15:00
5:35 PM,59.0,17.6,20,29.62,10.0,NW,31.1,39.1,N/A,,Clear,320,2012-10-17 22:35:00
5:55 PM,57.2,15.8,20,29.62,10.0,NNW,21.9,27.6,N/A,,Clear,330,2012-10-17 22:55:00
6:15 PM,57.2,15.8,20,29.62,10.0,NW,27.6,35.7,N/A,,Clear,320,2012-10-17 23:15:00
6:35 PM,57.2,15.8,20,29.63,10.0,NNW,27.6,35.7,N/A,,Clear,330,2012-10-17 23:35:00
6:55 PM,57.2,15.8,20,29.64,10.0,NW,27.6,35.7,N/A,,Clear,320,2012-10-17 23:55:00
7:15 PM,55.4,15.8,21,29.65,10.0,NW,21.9,32.2,N/A,,Clear,320,2012-10-18 00:15:00
7:35 PM,55.4,15.8,21,29.66,10.0,NW,26.5,34.5,N/A,,Clear,320,2012-10-18 00:35:00
7:55 PM,55.4,15.8,21,29.67,10.0,NW,16.1,26.5,N/A,,Clear,320,2012-10-18 00:55:00
8:15 PM,53.6,15.8,22,29.68,10.0,NW,12.7,-,N/A,,Clear,310,2012-10-18 01:15:00
8:35 PM,50.0,17.6,28,29.68,10.0,WNW,11.5,-,N/A,,Clear,290,2012-10-18 01:35:00
8:55 PM,48.2,17.6,30,29.68,10.0,WNW,13.8,-,N/A,,Clear,290,2012-10-18 01:55:00
9:15 PM,48.2,19.4,32,29.68,10.0,WNW,9.2,-,N/A,,Clear,290,2012-10-18 02:15:00
9:35 PM,48.2,19.4,32,29.68,10.0,West,12.7,-,N/A,,Clear,280,2012-10-18 02:35:00
9:55 PM,46.4,19.4,34,29.69,10.0,WNW,10.4,-,N/A,,Scattered Clouds,290,2012-10-18 02:55:00
10:15 PM,46.4,19.4,34,29.69,10.0,West,12.7,-,N/A,,Partly Cloudy,280,2012-10-18 03:15:00
10:35 PM,46.4,21.2,37,29.69,10.0,West,13.8,-,N/A,,Clear,280,2012-10-18 03:35:00
10:55 PM,46.4,21.2,37,29.69,10.0,West,15.0,-,N/A,,Clear,280,2012-10-18 03:55:00
11:15 PM,48.2,21.2,34,29.69,10.0,WNW,18.4,-,N/A,,Clear,290,2012-10-18 04:15:00
11:35 PM,48.2,21.2,34,29.69,10.0,WNW,18.4,-,N/A,,Clear,290,2012-10-18 04:35:00
11:55 PM,48.2,21.2,34,29.68,10.0,WNW,19.6,26.5,N/A,,Clear,300,2012-10-18 04:55:00